Regional Weather Roundup
Issued by NWS

Home | Current Version | Previous Version | Text Only | Print | Product List | Glossary On
Versions: 1 2 3 4 5 6 7 8 9 10 11 12 13 14 15 16 17 18 19 20 21 22 23 24 25 26 27 28 29 30 31 32 33 34 35 36 37 38 39 40 41 42 43 44
000
ASUS46 KSEW 220110
RWRWA

WASHINGTON REGIONAL WEATHER ROUNDUP
NATIONAL WEATHER SERVICE SEATTLE WA
600 PM PDT TUE OCT 21 2014

NOTE:"FAIR" INDICATES FEW OR NO CLOUDS BELOW 12,000 FEET WITH NO
SIGNIFICANT WEATHER AND/OR OBSTRUCTIONS TO VISIBILITY.

WAZ505-507>509-220200-
SEATTLE, TACOMA, EVERETT, AND VICINITY

CITY           SKY/WX    TMP DP  RH WIND       PRES   REMARKS
EVERETT        CLOUDY    58  47  66 SE17      29.86F
BOEING FIELD   CLOUDY    62  48  60 SE14      29.86F
RENTON         CLOUDY    60  50  69 SE6       29.87F
SEATAC AIRPORT MOCLDY    59  47  64 S10       29.88F
JBLM-MCCHORD   CLOUDY    60  49  66 S9        29.88F
PUYALLUP       NOT AVBL
JBLM-FT LEWIS  CLOUDY    60  49  67 SE15      29.87F
TACOMA NARROWS CLOUDY    59  48  67 S13       29.88S
$$

WAZ001-503-506-510-514-515-220200-
NORTH INTERIOR

CITY           SKY/WX    TMP DP  RH WIND       PRES   REMARKS
BELLINGHAM     CLOUDY    60  47  61 SE20G32   29.79F
FRIDAY HARBOR  CLOUDY    57  49  74 SE14G25   29.79F
EASTSOUND      CLOUDY    59  50  72 S10G18    29.77S
PORT ANGELES   RAIN      56  53  90 SW5       29.76F
NAS WHIDBEY    CLOUDY    62  49  62 SE25G40   29.80F
BURLINGTON     PTCLDY   N/A N/A N/A SE16G25   29.83S
$$

WAZ020-022-039-040-504-511-512-220200-
SOUTHWEST INTERIOR

CITY           SKY/WX    TMP DP  RH WIND       PRES   REMARKS
SHELTON        CLOUDY    57  51  80 SE10      29.84F
OLYMPIA        CLOUDY    58  50  75 S16G23    29.87F
CHEHALIS       CLOUDY    59  54  82 S9G16     29.89S
KELSO          CLOUDY    59  48  67 SE13G20   29.95S
VANCOUVER      CLOUDY    60  49  66 SE7       29.94F
SCAPPOOSE, OR  CLOUDY    58  51  78 S7        29.93F
PORTLAND, OR   CLOUDY    60  50  69 SE10      29.95F
$$

WAZ021-516-517-220200-
WASHINGTON COAST

CITY           SKY/WX    TMP DP  RH WIND       PRES   REMARKS
FORKS          LGT RAIN  58  57  97 S14G30    29.72F FOG
HOQUIAM        LGT RAIN  58  55  90 SE20G26   29.82F FOG
ASTORIA, OR    CLOUDY    60  50  69 S13G24    29.84F
$$

WAZ019-023-024-040-518-519-220200-
CASCADE MOUNTAINS AND COLUMBIA GORGE

CITY           SKY/WX    TMP DP  RH WIND       PRES   REMARKS
STAMPEDE PASS  NOT AVBL
TROUTDALE, OR  CLOUDY    58  51  78 E5        29.95F
THE DALLES, OR PTCLDY    60  48  64 NW9       29.95S
$$

WAZ026-027-041>044-520-521-220200-
EAST SLOPES

CITY           SKY/WX    TMP DP  RH WIND       PRES   REMARKS
OMAK           MOCLDY    59  45  59 S12       29.87S
WENATCHEE      MOCLDY    62  40  44 CALM      29.89R
ELLENSBURG     MOCLDY    54  45  71 NW6       29.91R
YAKIMA         PTCLDY    59  42  53 SW10G22   29.92R
$$

WAZ028-034-035-220200-
COLUMBIA BASIN

CITY           SKY/WX    TMP DP  RH WIND       PRES   REMARKS
EPHRATA        PTCLDY    58  43  57 S8        29.90S
MOSES LAKE     PTCLDY    61  42  49 S7        29.92S
PASCO          PTCLDY    61  46  57 S5        29.95F
HERMISTON, OR  PTCLDY    60  41  49 CALM      29.95S
$$

WAZ036>038-220200-
NORTHEAST WASHINGTON

CITY           SKY/WX    TMP DP  RH WIND       PRES   REMARKS
SPOKANE GEIGER PTCLDY    54  42  64 S9        29.96R
SPOKANE FELTS  PTCLDY    56  41  57 SW13      29.96R
FAIRCHILD AFB  MOCLDY    53  43  68 S7        29.96R
COEURDALENE,ID PTCLDY    52  39  62 S7        29.95R
DEER PARK      PTCLDY    53  41  63 S12       29.95R
$$

WAZ029>033-220200-
SOUTHEAST WASHINGTON

CITY           SKY/WX    TMP DP  RH WIND       PRES   REMARKS
PULLMAN        PTCLDY    53  38  56 SW12      30.01R
LEWISTON, ID   PTCLDY    58  44  60 CALM      29.98R
WALLA WALLA    CLEAR     57  42  57 SW5       29.98S
PENDLETON, OR  MOCLDY    59  41  51 W5        29.97R
$$



USA.gov is the U.S. government's official web portal to all federal, state and local government web resources and services.